Weather History for St. Joseph, MO

Change the Weather History Date:

Monday, February 11, 2013

  Actual Average Record
Temperature  
Mean Temperature 35 °F 31 °F  
Max Temperature 47 °F 41 °F 71 °F (1951)
Min Temperature 22 °F 21 °F -14 °F (1981)
Degree Days  
Heating Degree Days 30 34  
Month to date heating degree days 329 387  
Since 1 July heating degree days 3490 3770  
Cooling Degree Days 0 0  
Month to date cooling degree days 0 0  
Year to date cooling degree days 0 0  
Moisture  
Dew Point 22 °F    
Average Humidity 60    
Maximum Humidity 81    
Minimum Humidity 38    
Precipitation  
Precipitation 0.00 in 0.03 in 0.85 in (1983)
Month to date precipitation 0.05 0.33  
Year to date precipitation 0.69 0.89  
Sea Level Pressure  
Sea Level Pressure 30.10 in    
Wind  
Wind Speed 11 mph (WNW)    
Max Wind Speed 31 mph    
Max Gust Speed 39 mph    
Visibility 10 miles    
Events      
T = Trace of Precipitation, MM = Missing Value Source: NWS Daily Summary

Daily Weather History Graph

Daily Weather History Graph

Search for Another Location

Airport:

Trip Planner

Search our weather history database for the weather conditions in past years. The results will help you decide how hot, cold, wet, or windy it might be!

Date:

Astronomy

Feb. 11, 2013 Rise Set
Actual Time 7:16 AM CST 5:51 PM CST
Civil Twilight 6:48 AM CST 6:19 PM CST
Nautical Twilight 6:17 AM CST 6:51 PM CST
Astronomical Twilight 5:45 AM CST 7:22 PM CST
Moon 7:42 AM CST (2/11) 7:48 PM CST (2/11)
Length of Visible Light 11h 30m
Length of Day
10h 34m
Waxing Crescent, 3% of the Moon is Illuminated
Feb 11
Waxing Crescent
Feb 17
First Quarter
Feb 25
Full
Mar 4
Last Quarter
Mar 11
New

Hourly Weather History & Observations

Time (CST) Temp. Windchill Dew Point Humidity Pressure Visibility Wind Dir Wind Speed Gust Speed Precip Events Conditions
12:53 AM 37.9 °F 27.1 °F 23.0 °F 55% 29.90 in 10.0 mi WNW 23.0 mph 32.2 mph N/A   Overcast
1:53 AM 37.0 °F 27.0 °F 23.0 °F 57% 29.94 in 10.0 mi West 18.4 mph - N/A   Overcast
2:53 AM 36.0 °F 25.3 °F 23.0 °F 59% 29.97 in 10.0 mi WNW 19.6 mph 26.5 mph N/A   Overcast
3:53 AM 33.1 °F 23.0 °F 21.9 °F 64% 29.99 in 10.0 mi West 15.0 mph - N/A   Clear
4:53 AM 32.0 °F 21.6 °F 21.9 °F 66% 30.02 in 10.0 mi WNW 15.0 mph - N/A   Clear
5:53 AM 30.9 °F 22.8 °F 21.9 °F 69% 30.05 in 10.0 mi West 9.2 mph - N/A   Clear
6:53 AM 30.0 °F 20.5 °F 21.9 °F 72% 30.07 in 10.0 mi West 11.5 mph - N/A   Clear
7:53 AM 30.0 °F 20.5 °F 21.9 °F 72% 30.11 in 10.0 mi WNW 11.5 mph - N/A   Clear
8:53 AM 33.1 °F 26.1 °F 23.0 °F 66% 30.13 in 10.0 mi WNW 8.1 mph - N/A   Clear
9:53 AM 36.0 °F 27.5 °F 23.0 °F 59% 30.14 in 10.0 mi WNW 12.7 mph 20.7 mph N/A   Clear
10:53 AM 37.9 °F 30.9 °F 24.1 °F 57% 30.15 in 10.0 mi West 10.4 mph - N/A   Clear
11:53 AM 41.0 °F 33.5 °F 23.0 °F 49% 30.16 in 10.0 mi WNW 13.8 mph - N/A   Clear
12:53 PM 43.0 °F 35.7 °F 21.9 °F 43% 30.14 in 10.0 mi WNW 15.0 mph 19.6 mph N/A   Clear
1:53 PM 44.1 °F 37.4 °F 23.0 °F 43% 30.12 in 10.0 mi West 13.8 mph - N/A   Clear
2:53 PM 45.0 °F 37.9 °F 23.0 °F 42% 30.12 in 10.0 mi West 16.1 mph - N/A   Clear
3:53 PM 46.0 °F 41.0 °F 23.0 °F 40% 30.12 in 10.0 mi WNW 10.4 mph 19.6 mph N/A   Clear
4:53 PM 44.1 °F 38.1 °F 21.9 °F 42% 30.12 in 10.0 mi West 11.5 mph - N/A   Clear
5:53 PM 37.9 °F 32.1 °F 21.0 °F 51% 30.13 in 10.0 mi NW 8.1 mph - N/A   Clear
6:53 PM 33.1 °F 28.7 °F 21.0 °F 61% 30.14 in 10.0 mi NW 4.6 mph - N/A   Clear
7:53 PM 33.1 °F 27.7 °F 21.0 °F 61% 30.16 in 10.0 mi WNW 5.8 mph - N/A   Clear
8:53 PM 26.1 °F - 19.0 °F 75% 30.18 in 10.0 mi Calm Calm - N/A   Clear
9:53 PM 24.1 °F 17.0 °F 19.0 °F 81% 30.18 in 10.0 mi North 5.8 mph - N/A   Clear
10:53 PM 26.1 °F - 19.9 °F 78% 30.20 in 10.0 mi Calm Calm - N/A   Clear
11:53 PM 25.0 °F 19.3 °F 19.9 °F 81% 30.19 in 10.0 mi North 4.6 mph - N/A   Clear